(Global) Earthquake at 2022-08-07 13:40:41 in KURIL ISLANDS Latitude 43.92 Longitude 147.97 , at a depth of 40 km Magnitude 6.0
Global alerts
Previous warnings
Time Mag Region Lat Lng Adancime Sursa Raport
2022-08-07 13:40:41 6.0 KURIL ISLANDS 43.92 147.97 40 EMSC Detalii
2022-08-05 04:38:35 5.8 KERMADEC ISLANDS REGION -30.78 -176.96 2 EMSC Detalii
2022-08-04 00:48:20 5.6 NEAR EAST COAST OF HONSHU, JAPAN 37.68 141.57 60 EMSC Detalii
2022-08-03 21:55:37 5.6 NICARAGUA 12.22 -86.90 135 EMSC Detalii
2022-08-02 15:17:05 5.9 OFFSHORE HONDURAS 16.42 -87.43 10 EMSC Detalii
2022-07-29 23:05:43 5.6 OFF EAST COAST OF KAMCHATKA 51.14 161.06 10 EMSC Detalii
2022-07-29 13:01:13 5.6 RUSSIA-MONGOLIA BORDER REGION 50.45 90.74 10 EMSC Detalii
2022-07-28 18:28:22 5.8 EASTERN NEW GUINEA REG., P.N.G. -7.01 146.80 5 EMSC Detalii
2022-07-28 04:15:03 6.1 OFFSHORE ANTOFAGASTA, CHILE -21.99 -70.26 45 EMSC Detalii
2022-07-27 18:58:58 6.2 ANTOFAGASTA, CHILE -22.27 -68.55 108 EMSC Detalii
2022-07-27 16:16:47 5.7 SOUTH OF FIJI ISLANDS -23.56 -179.73 540 EMSC Detalii
2022-07-27 00:43:23 7.0 LUZON, PHILIPPINES 17.48 120.83 10 EMSC Detalii
2022-07-23 16:09:07 5.6 SOUTHERN IRAN 26.91 55.53 10 EMSC Detalii
2022-07-22 11:31:48 5.6 VANUATU -20.02 169.35 80 EMSC Detalii
2022-07-21 17:07:27 5.6 MYANMAR 21.08 99.81 15 EMSC Detalii
2022-07-19 23:46:48 5.6 SOUTHERN SUMATRA, INDONESIA -4.28 102.03 10 EMSC Detalii
2022-07-18 18:40:32 5.7 SVALBARD REGION 78.83 6.33 10 EMSC Detalii
2022-07-15 19:37:22 5.8 OFF COAST OF AISEN, CHILE -44.76 -79.80 10 EMSC Detalii
2022-07-14 22:30:14 6.0 ECUADOR -1.99 -79.73 80 EMSC Detalii
2022-07-14 17:50:32 5.8 VANUATU -15.10 166.62 40 EMSC Detalii
2022-07-12 23:36:12 5.9 NEAR COAST OF SOUTHERN PERU -17.06 -71.47 10 EMSC Detalii
2022-07-12 19:17:06 7.0 EASTER ISLAND REGION -22.67 -114.10 33 EMSC Detalii
2022-07-11 22:23:35 5.8 TONGA -15.52 -173.13 2 EMSC Detalii
2022-07-11 21:10:56 5.8 VANUATU -18.19 169.24 60 EMSC Detalii
2022-07-11 21:06:12 5.7 VANUATU -18.01 169.23 80 EMSC Detalii
2022-07-10 22:20:06 5.8 PAGAN REG., N. MARIANA ISLANDS 18.76 146.92 60 EMSC Detalii
2022-07-08 23:43:44 5.9 PAGAN REG., N. MARIANA ISLANDS 18.79 146.04 70 EMSC Detalii
2022-07-08 23:36:09 6.0 MARIANA ISLANDS REGION 18.92 147.12 10 EMSC Detalii
2022-07-08 01:01:45 5.6 VANUATU -14.93 167.10 90 EMSC Detalii
2022-07-02 01:59:45 5.9 HOKKAIDO, JAPAN REGION 45.71 142.37 308 EMSC Detalii
Regional Alerts
Local previous warnings
Time Mag Region Lat Lng Adancime Details
2022-02-13 18:25:56 UTC Mw 5.4 ARMENIA 41.14 43.99 10 f -
2021-11-19 12:40:53 UTC Mw 5.2 EASTERN TURKEY 39.81 41.92 5 f -
2019-09-26 10:59:25 UTC Mw 5.7 WESTERN TURKEY 40.87 28.19 7 f -
2018-10-28 00:38:10 UTC Mw 5.5 ROMANIA 45.60 26.40 151 f -
2017-05-11 17:58:01 UTC mb 5.0 EASTERN TURKEY 40.07 40.71 3 f -
2016-12-27 23:20:56 UTC Mw 5.6 ROMANIA 45.72 26.61 91 f -
2016-10-15 08:18:33 UTC Mw 5.1 BLACK SEA 42.20 30.69 10 -
2016-09-23 23:11:20 UTC Mw 5.7 ROMANIA 45.71 26.62 92 f -
2014-11-22 19:14:17 UTC Mw 5.6 ROMANIA 45.87 27.16 39 f -
2013-10-06 01:37:21 UTC Mw 5.3 ROMANIA 45.64 26.69 134 -
2013-05-28 00:09:52 UTC mb 5.2 GEORGIA (SAK'ART'VELO) 43.22 41.58 2 -
2012-12-25 22:44:32 UTC Mw 5.4 BLACK SEA, OFFSHORE GEORGIA 42.54 40.94 2 -
2012-12-23 13:31:40 UTC Mw 5.7 BLACK SEA, OFFSHORE GEORGIA 42.58 40.98 10 -
2012-06-07 20:54:26 UTC Mw 5.1 WESTERN TURKEY 40.85 27.92 14 f -
2011-09-22 03:22:36 UTC Mw 5.5 EASTERN TURKEY 39.79 38.84 5 -
2011-07-25 17:57:21 UTC Mw 5.0 WESTERN TURKEY 40.80 27.75 16 f -
2011-01-19 09:17:49 UTC mb 5.3 GEORGIA (SAK'ART'VELO) 42.01 42.60 2 -
2010-08-12 02:23:04 UTC Mw 4.5 WESTERN TURKEY 39.66 27.61 2 -
2009-09-07 22:41:36 UTC Mw 5.9 GEORGIA (SAK'ART'VELO) 42.66 43.42 10 -
2009-04-25 17:18:48 UTC mb 5.3 ROMANIA 45.70 26.63 96 -
2008-05-07 08:00:21 UTC mb 5.0 UKRAINE 45.36 30.88 10 -
2006-02-06 04:08:00 UTC mb 5.0 GEORGIA (SAK'ART'VELO) 42.64 43.52 10 -
2005-12-13 12:14:44 UTC mb 5.0 ROMANIA 45.78 26.79 144 -
2005-06-18 15:16:40 UTC mb 5.0 ROMANIA 45.79 26.91 135 -
2005-05-14 01:53:20 UTC mb 5.1 ROMANIA 45.66 26.47 144 -
2004-10-27 20:34:32 UTC Mw 6.0 ROMANIA 45.83 26.77 76 -
2004-10-03 09:02:01 UTC mb 5.0 UKRAINE-ROMANIA BORDER REGION 45.16 29.09 2 -

Live Video Mangalia

Very Low Warning! (global)

Event report
2022-08-07 13:40:41 magnitude 6.0

Detalii (EMSC)

Very Low Warning! (local)

Weather data
Station Absolute Pressure (hPa) Int Temperature (C) Int Moisture (%) Ext Temperature (C) Ext Moisture (%) Wind speed (km / h) Wind Direction (degrees) Rainfall (mm)
Eforie AbsP InTmC InH% OTmpC OH% WKmh WDir TRNmm
Water level data - BLACK SEA

Mangalia

Denumire Valoare
Time 21 Jun 2016 07:32:06
Lev RAD(m) -7.69
Forecast30 (m) -7.7
Forecast300 (m) -7.7
Rms (m) 0.02
Alert Signal (m) 0
Alert (-) 0
Battery (V) 13.14
Panel (V) -7.7
Sensor Temp (C) 35.9
Temperature (C) 40.2

View Raw Data »

View Raw Plots »

Constanta

Name Value
Time 21 Jun 2016 07:32:06
Lev RAD(m) -7.69
Forecast30 (m) -7.7
Forecast300 (m) -7.7
Rms (m) 0.02
Alert Signal (m) 0
Alert (-) 0
Battery (V) 13.14
Panel (V) -7.7
Sensor Temp (C) 35.9
Temperature (C) 40.2

View Raw Data »

View Raw Plots »

View Plot »

Sulina

Name Value
Time 21 Jun 2016 07:32:06
Lev RAD(m) -7.69
Forecast30 (m) -7.7
Forecast300 (m) -7.7
Rms (m) 0.02
Alert Signal (m) 0
Alert (-) 0
Battery (V) 13.14
Panel (V) -7.7
Sensor Temp (C) 35.9
Temperature (C) 40.2

View Raw Data »

View Raw Plots »